EXPRESS-AM6

Last updated on Tue Jul 08 2025 00:02:46 GMT+0000 (Coordinated Universal Time)

1 40277U 14064A 25188.14578832 .00000115 00000+0 00000+0 0 9992 2 40277 0.0138 318.2780 0001011 239.4558 193.1023 1.00273961 38102
UTC large
Height (km)
Speed (km/s)
/
Latitude / Longitude
Inclination (degrees)
Orbital Period (minutes)
Azimuth
Elevation
Range (km)
Doppler Factor

Next 0 passes for location: London (51.5072 / 0.1276)

Sorry there are no passes over London.